Temp
61 61 63 64 64 51 53 57 50 55 60 59 48 50 50 48 43 42 46 47 49 54 59 62 62 63 63 66 67 68 68 70 70 70 72 73 71 73 72 72 72 72 73 73 75 76 76 77 77 77 76 76 76 76 75 75 75 75 75 76 75 76 75
62 60 65 64 64 59 55 49 55 58 61 57 52 45 40 37 39 41 46 45 45 47 49 58 60 59 61 63 65 67 67 68 68 70 71 73 74 74 73 72 71 72 72 73 74 76 77 76 77 77 76 77 77 77 76 76 75 74 75 76 76 76 75
60 62 62 62 66 63 59 55 61 61 48 51 46 47 40 39 34 36 42 47 46 45 49 55 57 58 59 61 63 64 65 67 67 68 70 72 73 69 68 70 70 70 70 71 72 74 76 76 76 77 77 77 77 77 77 78 76 77 77 77 77 77 77
60 56 55 50 48 58 62 63 62 57 52 44 48 48 44 46 38 41 40 44 42 49 51 55 57 59 60 61 62 63 64 65 66 67 67 68 68 67 69 69 69 70 70 71 72 73 73 73 74 75 76 77 77 77 77 76 77 76 76 77 77 77 77
56 54 54 47 49 53 58 52 53 59 52 54 54 53 50 43 40 39 40 40 44 48 56 58 59 61 62 62 61 62 63 65 66 67 66 67 67 67 68 68 68 68 70 71 71 72 72 73 74 75 75 76 76 76 76 76 75 75 75 76 77 77 77
46 49 52 57 54 51 52 47 53 49 51 51 47 44 50 47 44 39 41 39 45 54 62 60 61 62 62 63 62 61 62 63 64 65 67 68 67 67 68 68 69 69 70 71 71 72 72 72 72 73 74 73 74 75 76 76 76 75 75 76 76 76 77
52 56 61 59 59 58 55 55 57 53 50 46 39 39 44 47 47 50 45 40 42 55 62 62 62 63 63 63 63 61 62 62 63 65 66 66 68 68 68 68 69 69 70 70 70 71 71 71 71 72 73 73 73 74 74 75 76 75 76 77 77 77 76
49 55 56 58 58 57 55 52 53 54 53 55 48 42 44 45 46 42 39 39 44 57 62 62 62 63 63 63 63 62 62 63 63 63 64 65 65 67 68 69 69 69 69 69 70 70 70 70 70 71 71 72 74 74 75 75 75 75 75 76 76 76 75
40 43 52 54 58 56 50 52 52 55 54 54 49 47 44 46 46 45 45 40 45 56 62 62 62 62 62 61 62 63 61 62 63 64 64 65 65 66 66 67 67 68 68 69 69 70 70 70 70 70 70 71 72 72 73 74 75 75 75 76 76 76 76
38 37 36 40 44 49 52 53 53 54 55 50 52 51 45 42 46 46 44 41 49 57 60 59 61 60 60 61 62 63 63 62 63 64 64 65 66 66 66 66 66 67 67 68 68 69 69 69 69 69 70 71 71 72 73 74 74 74 74 73 74 75 76
43 44 44 50 55 48 48 54 53 53 53 53 47 44 44 46 42 46 43 48 50 53 55 57 58 59 58 58 60 61 62 63 63 64 65 65 65 65 65 65 66 66 67 67 68 68 69 70 70 70 70 71 72 71 71 72 72 73 73 73 74 74 74
49 51 50 56 56 51 50 50 52 53 53 51 50 50 45 45 48 40 45 52 51 53 56 57 57 58 59 60 60 61 62 63 63 64 64 65 65 65 65 65 65 65 66 66 67 68 69 70 70 70 71 71 71 71 71 72 72 72 73 73 72 72 72
52 53 53 55 55 54 52 51 51 51 53 50 52 47 48 51 49 48 48 52 52 55 58 59 58 59 59 60 61 62 62 63 64 64 63 63 64 64 64 64 65 65 66 66 67 67 68 68 68 68 69 69 70 71 72 72 73 72 72 72 72 72 71
52 53 54 56 55 54 52 52 52 53 52 51 49 49 49 50 46 49 51 53 54 58 59 59 59 61 61 61 63 63 63 62 62 62 63 63 63 64 64 64 65 65 65 66 66 67 67 68 68 68 68 69 69 70 70 71 72 72 72 72 71 71 71
48 52 55 57 56 55 51 51 53 53 53 53 52 51 52 53 51 52 53 53 52 57 61 60 61 61 62 62 62 61 61 62 62 63 63 63 63 63 64 64 64 65 66 66 66 66 66 66 67 67 68 68 69 69 69 70 70 71 72 71 72 71 71
43 50 51 53 55 56 52 50 51 50 50 49 49 47 52 50 49 53 53 51 51 56 60 61 60 60 59 58 58 59 60 63 63 63 62 62 63 63 63 64 64 64 65 65 65 66 66 67 67 67 67 67 68 68 69 69 69 70 71 71 71 71 71
39 48 50 52 53 54 50 47 50 50 50 51 52 51 53 52 56 52 49 51 57 58 60 57 57 58 58 58 58 58 60 62 64 62 62 62 63 63 62 63 63 62 64 65 65 66 66 66 67 67 68 68 67 67 67 68 70 70 69 69 69 69 70
38 46 48 49 43 39 39 53 57 53 48 49 48 47 50 53 53 51 54 56 58 59 58 56 55 57 57 57 58 60 60 60 62 63 63 63 63 62 62 63 62 63 64 65 65 65 66 67 68 68 68 67 67 68 68 68 68 68 69 69 68 69 69
39 39 43 42 35 39 50 56 58 57 55 54 51 51 52 52 53 55 56 57 59 59 59 58 58 58 59 61 61 61 61 60 61 61 62 62 62 62 62 62 62 62 63 64 64 64 65 66 66 67 66 67 66 66 66 66 66 65 66 67 67 67 68
37 35 34 31 34 43 51 55 57 60 58 55 53 52 53 53 52 53 55 58 60 60 59 58 59 59 59 60 60 60 62 62 60 61 61 62 62 61 61 61 62 63 63 63 62 62 65 65 65 66 65 66 66 65 66 66 66 65 65 65 65 66 66
37 34 32 36 43 47 52 53 55 55 51 51 49 44 48 52 53 53 55 58 59 59 58 59 59 60 61 57 56 61 61 61 62 62 63 63 63 62 63 64 63 64 64 64 64 64 63 64 63 63 64 64 63 64 63 64 64 64 64 64 64 64 64
33 30 35 33 38 35 41 49 54 58 58 56 53 48 45 52 54 56 56 55 57 57 58 58 59 60 56 50 51 57 60 61 60 62 63 64 64 64 64 64 64 64 64 65 65 65 64 63 63 63 63 63 62 62 62 62 63 63 62 62 63 63 64
36 31 27 30 29 35 40 51 55 57 57 57 55 49 42 50 53 57 58 56 55 56 57 57 59 55 48 46 51 56 59 60 61 60 60 61 63 64 64 63 62 63 63 64 64 63 63 62 62 63 63 62 62 61 61 62 62 61 61 61 62 62 63
34 30 31 35 33 41 50 50 52 57 57 59 54 42 40 50 55 57 59 57 57 56 56 57 55 53 46 46 51 57 58 59 59 59 59 59 60 61 62 62 62 61 62 62 61 61 60 60 63 63 63 63 62 61 61 61 60 60 60 61 62 63 63
38 41 33 35 38 46 48 49 54 55 57 56 43 35 45 54 57 58 59 58 58 57 55 55 52 54 56 53 54 57 58 59 59 60 60 60 61 61 61 62 63 61 60 60 59 59 59 60 62 63 63 61 59 60 60 59 59 59 60 61 62 62 62
36 33 38 35 36 43 49 51 52 51 54 42 39 47 49 56 56 58 59 58 58 57 56 55 54 54 57 57 58 57 57 56 56 59 60 60 61 62 63 63 61 60 60 59 59 60 59 61 62 62 61 60 59 59 58 58 59 60 61 61 61 62 61
33 26 30 30 32 47 49 50 53 55 49 46 47 51 54 58 59 58 58 58 58 58 56 57 56 56 56 57 57 57 57 57 56 57 58 57 58 58 58 59 61 60 58 58 58 58 59 59 59 61 61 59 58 58 57 57 59 61 61 61 61 61 62
34 31 34 35 41 46 48 49 48 50 51 52 50 50 52 56 57 58 58 57 58 58 57 57 57 57 56 56 57 57 57 58 58 57 57 58 58 59 60 60 59 59 57 57 57 57 58 58 58 59 60 59 59 57 56 58 59 61 61 61 60 61 61
38 39 35 38 40 45 47 49 48 48 51 50 49 49 51 54 55 56 57 58 57 57 58 57 57 56 57 57 58 57 57 57 56 56 57 57 57 58 58 59 60 59 58 56 56 56 56 57 57 57 58 58 58 57 57 59 58 59 60 61 61 59 59
45 44 46 47 46 47 49 50 50 50 51 53 52 53 54 54 54 55 58 57 56 56 57 57 55 57 57 57 57 57 57 57 57 57 57 56 57 58 58 58 59 58 58 57 56 55 55 56 57 57 57 57 56 56 58 59 58 59 60 60 60 58 59
41 40 43 45 46 47 48 49 50 51 51 50 51 51 51 52 54 55 55 56 55 55 55 55 54 55 57 56 56 56 55 55 55 55 55 55 56 56 56 57 57 56 56 56 56 55 55 55 56 56 56 57 56 57 57 58 59 59 61 59 59 58 57
44 44 47 47 46 48 49 48 48 49 50 51 51 50 51 52 53 56 56 56 55 55 54 54 53 52 53 53 53 54 54 54 54 54 54 54 54 55 55 56 55 55 55 54 55 55 54 54 55 56 56 56 56 56 57 57 58 59 60 60 57 56 57
40 43 46 46 46 49 50 50 50 49 48 50 51 51 52 53 54 54 54 56 56 55 54 56 54 53 54 54 53 53 53 53 53 53 53 54 54 53 53 54 55 54 54 54 54 55 54 53 54 54 54 55 56 56 56 57 57 58 58 58 57 56 57
39 42 47 46 46 43 47 49 50 50 50 49 51 52 52 52 51 51 53 53 55 58 58 58 58 56 55 55 55 53 52 52 53 53 53 53 53 53 54 54 54 55 55 54 54 54 52 53 54 54 54 55 55 57 57 56 57 58 58 57 56 56 57
38 41 41 44 44 42 50 50 51 49 50 51 51 51 50 51 51 51 52 51 52 54 55 56 57 56 56 55 54 53 53 53 53 53 53 53 52 52 53 53 53 53 53 55 54 54 53 54 54 54 54 54 55 55 56 56 56 55 56 56 56 56 58
45 48 43 45 47 50 50 49 48 50 50 51 50 50 51 52 52 52 52 52 52 51 53 53 55 56 56 55 54 54 53 53 52 52 53 53 53 53 53 54 53 54 54 54 54 54 53 54 53 53 54 53 54 55 55 55 55 54 54 54 54 54 56
51 49 45 46 46 51 49 50 51 49 52 53 52 51 53 52 52 53 52 51 51 53 51 52 53 53 54 53 54 54 53 52 53 52 53 53 53 53 53 53 53 54 54 54 53 52 52 52 53 53 52 53 53 54 54 54 55 54 54 54 53 54 56
MSLP
1010.87 1010.55 1010.47 1010.87 1010.27 1014.79 1013.63 1013.95 1015.47 1013.31 1011.91 1012.83 1015.83 1017.27 1017.23 1017.39 1017.71 1018.79 1018.07 1017.63 1017.11 1015.63 1015.07 1014.95 1014.75 1014.23 1013.95 1013.23 1013.19 1013.15 1013.27 1013.27 1013.51 1013.99 1013.99 1014.15 1014.59 1014.67 1014.95 1015.19 1015.27 1015.19 1015.15 1015.19 1015.23 1015.51 1015.75 1015.91 1016.07 1016.23 1016.35 1016.39 1016.51 1016.79 1017.19 1017.51 1017.63 1017.75 1017.83 1017.83 1018.03 1018.19 1018.43
1010.19 1010.31 1010.35 1010.35 1010.31 1010.31 1013.15 1014.83 1013.15 1012.51 1012.39 1012.31 1014.19 1017.35 1018.11 1017.95 1019.23 1019.07 1019.15 1018.67 1018.43 1017.63 1017.83 1016.03 1015.75 1015.67 1015.15 1014.55 1014.03 1013.75 1013.67 1013.67 1014.07 1013.99 1013.95 1013.87 1014.11 1014.27 1014.55 1014.95 1015.03 1015.11 1015.11 1015.19 1015.31 1015.39 1015.51 1015.59 1015.63 1015.83 1016.03 1016.03 1016.23 1016.43 1016.71 1017.19 1017.55 1017.79 1017.75 1017.75 1017.87 1017.99 1018.27
1010.75 1010.39 1010.39 1010.83 1010.35 1010.35 1010.83 1011.27 1010.23 1012.23 1016.31 1016.19 1015.27 1015.63 1019.55 1019.75 1019.47 1019.87 1019.27 1019.03 1018.47 1018.35 1017.23 1017.59 1017.11 1016.71 1016.19 1015.47 1014.67 1014.47 1014.55 1014.39 1014.47 1014.39 1014.27 1014.11 1014.11 1014.91 1015.11 1014.99 1015.15 1015.31 1015.47 1015.63 1015.67 1015.67 1015.39 1015.35 1015.35 1015.51 1015.67 1015.95 1016.23 1016.47 1016.59 1016.83 1017.15 1017.11 1017.27 1017.43 1017.63 1017.79 1017.91
1011.59 1011.27 1011.07 1013.87 1012.51 1010.43 1010.27 1010.67 1011.31 1011.95 1011.83 1013.63 1015.31 1014.75 1015.43 1016.03 1019.79 1021.03 1019.75 1018.91 1018.39 1017.67 1017.63 1017.83 1017.19 1016.63 1016.35 1015.75 1015.39 1015.27 1015.07 1014.95 1014.83 1014.71 1014.59 1014.59 1014.95 1015.11 1015.11 1015.27 1015.47 1015.67 1015.79 1015.51 1015.47 1015.47 1015.55 1015.59 1015.67 1015.75 1015.91 1016.03 1016.27 1016.39 1016.63 1016.83 1016.95 1017.15 1017.43 1017.59 1017.67 1017.91 1017.91
1012.27 1012.99 1012.63 1013.07 1012.75 1012.75 1012.27 1012.11 1012.91 1011.91 1012.59 1012.63 1012.59 1014.43 1015.07 1015.39 1018.47 1018.83 1018.63 1019.83 1017.91 1017.67 1017.27 1017.11 1016.79 1016.39 1016.07 1015.87 1015.99 1015.75 1015.55 1015.35 1015.11 1015.03 1015.07 1015.23 1015.39 1015.39 1015.31 1015.75 1016.23 1016.39 1015.99 1015.71 1015.91 1015.91 1015.83 1015.67 1015.67 1015.75 1015.91 1016.03 1016.07 1016.23 1016.51 1016.67 1016.99 1017.15 1017.31 1017.35 1017.51 1017.63 1017.75
1013.63 1013.79 1012.23 1012.31 1012.67 1012.51 1012.27 1012.39 1013.43 1013.55 1013.31 1014.03 1015.55 1016.35 1016.43 1016.59 1016.27 1018.23 1018.91 1018.07 1017.35 1017.43 1016.07 1016.27 1016.43 1016.19 1016.15 1015.99 1016.03 1016.15 1015.95 1015.75 1015.63 1015.55 1015.35 1015.27 1015.67 1015.71 1015.71 1015.95 1016.07 1015.99 1015.75 1015.75 1016.11 1015.99 1015.83 1015.71 1015.75 1015.87 1015.95 1016.11 1016.23 1016.19 1016.15 1016.31 1016.59 1016.91 1017.11 1017.27 1017.35 1017.47 1017.59
1013.55 1012.51 1011.67 1012.19 1012.51 1012.39 1011.91 1011.91 1013.27 1013.27 1013.71 1013.27 1013.83 1016.43 1016.75 1016.83 1016.95 1017.03 1017.75 1016.39 1017.11 1016.99 1016.03 1016.07 1016.11 1016.11 1016.03 1015.99 1015.95 1016.35 1016.19 1016.03 1015.91 1015.79 1015.67 1015.63 1015.47 1015.59 1015.59 1015.63 1015.75 1015.75 1015.83 1015.99 1015.83 1015.67 1015.75 1015.87 1016.03 1015.99 1015.99 1016.11 1016.07 1016.07 1016.11 1016.15 1016.35 1016.59 1016.67 1016.87 1017.03 1017.27 1017.55
1013.47 1012.43 1012.51 1011.71 1011.79 1011.87 1012.63 1012.67 1013.07 1013.15 1013.19 1013.19 1013.15 1013.11 1014.03 1015.43 1017.23 1016.83 1018.07 1017.15 1017.51 1016.79 1015.87 1015.95 1016.03 1016.07 1016.03 1016.11 1016.07 1016.31 1016.43 1016.27 1016.19 1016.11 1015.95 1015.79 1015.71 1015.71 1015.47 1015.31 1015.31 1015.31 1015.75 1016.19 1016.35 1016.11 1016.03 1016.19 1016.43 1016.71 1016.87 1016.79 1016.67 1016.39 1016.31 1016.47 1016.71 1016.71 1016.75 1016.91 1017.11 1017.39 1017.63
1014.67 1013.59 1012.67 1012.15 1012.11 1012.63 1014.11 1014.19 1013.31 1013.35 1013.51 1013.55 1014.27 1013.87 1015.19 1014.67 1016.71 1015.43 1015.71 1017.39 1017.27 1016.83 1015.87 1016.11 1016.19 1016.27 1016.51 1016.63 1016.51 1016.27 1016.55 1016.59 1016.43 1016.31 1016.15 1015.91 1015.75 1015.67 1015.75 1015.83 1015.79 1015.79 1015.99 1016.31 1016.19 1015.87 1015.79 1015.87 1016.23 1016.83 1017.43 1017.51 1017.19 1016.95 1016.67 1016.59 1016.71 1016.83 1017.03 1017.15 1017.39 1017.55 1017.67
1018.43 1019.11 1019.07 1018.59 1016.79 1015.23 1014.75 1014.07 1013.75 1013.67 1013.83 1014.31 1013.39 1014.31 1014.87 1015.23 1015.95 1016.67 1015.71 1016.63 1017.95 1016.79 1016.43 1016.63 1016.55 1016.75 1016.95 1016.83 1016.75 1016.51 1016.51 1016.63 1016.63 1016.55 1016.35 1016.15 1015.95 1015.83 1015.59 1015.87 1015.95 1015.91 1015.51 1015.23 1015.59 1016.15 1016.63 1016.71 1016.79 1016.79 1016.79 1016.79 1016.63 1016.43 1016.23 1016.23 1016.63 1016.87 1017.11 1017.23 1017.71 1017.99 1018.03
1017.99 1016.99 1016.27 1015.07 1015.39 1015.31 1015.27 1014.43 1014.87 1014.91 1014.15 1014.23 1013.99 1013.83 1014.59 1014.67 1016.15 1016.23 1015.99 1015.55 1017.55 1017.35 1016.95 1016.87 1016.99 1017.03 1017.23 1017.43 1017.23 1017.11 1017.03 1016.91 1016.71 1016.55 1016.47 1016.39 1016.31 1016.15 1016.23 1016.27 1016.19 1016.07 1015.99 1015.75 1015.91 1016.27 1016.55 1016.79 1016.71 1016.55 1016.43 1016.43 1016.55 1016.91 1017.23 1017.31 1017.31 1017.39 1017.63 1017.67 1017.63 1017.79 1018.11
1016.27 1016.07 1016.19 1015.31 1015.19 1015.75 1015.03 1015.47 1015.55 1015.27 1015.15 1014.47 1013.43 1013.15 1013.31 1014.03 1015.55 1016.39 1016.23 1016.47 1016.91 1017.03 1016.59 1016.63 1016.99 1017.11 1017.15 1017.07 1017.15 1017.19 1017.11 1017.07 1017.03 1016.87 1016.71 1016.51 1016.51 1016.47 1016.39 1016.39 1016.47 1016.43 1016.23 1016.23 1016.31 1016.39 1016.43 1016.43 1016.31 1016.39 1016.47 1016.59 1016.71 1016.91 1017.07 1017.03 1017.15 1017.31 1017.43 1017.27 1017.31 1017.51 1017.87
1016.31 1016.39 1016.23 1015.55 1015.19 1015.31 1015.43 1015.91 1016.07 1016.11 1015.67 1015.07 1013.83 1013.27 1014.15 1014.03 1013.63 1013.43 1015.03 1016.35 1016.83 1016.31 1015.95 1016.19 1016.71 1016.91 1017.11 1017.07 1017.15 1017.07 1016.99 1016.95 1017.03 1017.07 1017.07 1017.07 1016.99 1016.87 1016.95 1016.99 1016.87 1016.59 1016.43 1016.43 1016.55 1016.63 1016.71 1016.71 1016.71 1016.71 1016.79 1016.87 1016.87 1016.95 1016.99 1017.07 1017.07 1017.11 1016.99 1017.15 1017.35 1017.55 1017.71
1016.47 1015.51 1014.87 1014.99 1015.19 1015.19 1015.19 1015.75 1016.31 1016.11 1015.99 1015.67 1015.19 1015.59 1015.35 1014.67 1014.23 1015.19 1015.95 1016.07 1016.27 1015.67 1015.83 1016.11 1016.51 1016.47 1016.71 1016.91 1016.83 1016.99 1017.23 1017.43 1017.43 1017.39 1017.39 1017.39 1017.31 1017.27 1017.35 1017.35 1017.11 1016.83 1016.71 1016.71 1016.79 1016.91 1016.99 1017.03 1017.03 1017.03 1017.07 1017.03 1017.03 1017.07 1017.07 1016.99 1017.07 1017.07 1017.27 1017.59 1017.75 1017.99 1018.07
1016.35 1015.83 1014.71 1014.15 1014.87 1015.39 1015.63 1016.15 1016.23 1016.07 1016.07 1015.23 1015.15 1015.27 1015.59 1015.63 1016.31 1015.87 1015.91 1016.07 1016.67 1015.79 1015.27 1016.03 1016.23 1016.43 1016.63 1016.83 1017.19 1017.51 1017.51 1017.43 1017.43 1017.43 1017.55 1017.63 1017.59 1017.59 1017.51 1017.51 1017.39 1017.19 1017.07 1017.03 1017.11 1017.31 1017.47 1017.51 1017.47 1017.47 1017.47 1017.43 1017.35 1017.35 1017.31 1017.15 1017.11 1017.03 1016.99 1017.27 1017.43 1017.75 1017.91
1016.83 1016.75 1016.35 1015.51 1014.99 1015.07 1015.79 1016.63 1016.99 1016.67 1016.79 1016.19 1016.11 1016.15 1015.95 1015.79 1016.47 1016.39 1016.31 1016.99 1016.83 1016.19 1015.55 1016.07 1016.39 1016.79 1017.11 1017.51 1017.67 1017.67 1017.55 1017.35 1017.35 1017.55 1017.75 1017.83 1017.87 1017.91 1017.91 1017.83 1017.75 1017.71 1017.67 1017.67 1017.71 1017.79 1017.79 1017.79 1017.79 1017.83 1017.83 1017.79 1017.75 1017.91 1017.75 1017.59 1017.47 1017.23 1017.19 1017.23 1017.43 1017.51 1017.47
1017.79 1017.03 1017.19 1015.99 1015.63 1016.27 1016.47 1017.75 1018.03 1017.63 1016.75 1016.27 1016.27 1016.59 1016.03 1015.83 1015.31 1016.27 1017.07 1016.35 1015.19 1015.39 1015.39 1016.43 1016.99 1017.03 1017.43 1017.59 1017.63 1017.59 1017.47 1017.27 1017.27 1017.59 1017.79 1017.91 1017.99 1018.11 1018.23 1018.27 1018.23 1018.23 1018.15 1018.11 1018.11 1018.11 1018.07 1018.11 1018.11 1018.07 1017.99 1017.99 1018.11 1018.07 1017.95 1017.75 1017.51 1017.51 1017.63 1017.67 1017.63 1017.63 1017.55
1017.91 1017.51 1017.23 1016.23 1016.95 1019.63 1019.39 1016.47 1016.43 1017.15 1017.83 1017.19 1016.95 1018.07 1017.75 1016.71 1016.03 1016.07 1015.55 1015.63 1015.63 1015.83 1016.15 1016.55 1017.19 1017.31 1017.51 1017.55 1017.47 1017.19 1017.23 1017.35 1017.51 1017.63 1017.79 1017.95 1018.19 1018.35 1018.47 1018.43 1018.47 1018.55 1018.51 1018.47 1018.51 1018.47 1018.39 1018.35 1018.31 1018.35 1018.23 1018.31 1018.31 1018.11 1018.11 1018.07 1017.95 1017.87 1017.87 1017.83 1017.79 1017.91 1017.87
1018.47 1018.31 1017.51 1017.91 1019.95 1018.55 1015.87 1015.11 1015.63 1015.91 1016.39 1016.63 1017.35 1017.31 1017.07 1017.11 1016.19 1015.75 1015.47 1015.67 1015.91 1016.11 1016.27 1016.43 1016.79 1017.03 1017.19 1017.19 1017.43 1017.51 1017.47 1017.39 1017.55 1017.79 1017.95 1018.23 1018.39 1018.43 1018.51 1018.59 1018.59 1018.63 1018.71 1018.71 1018.83 1018.83 1018.71 1018.71 1018.67 1018.63 1018.75 1018.67 1018.59 1018.51 1018.55 1018.67 1018.55 1018.51 1018.43 1018.31 1018.31 1018.39 1018.51
1018.95 1018.91 1018.55 1019.99 1018.91 1016.47 1016.19 1015.43 1014.79 1014.91 1015.59 1015.95 1015.91 1015.79 1016.59 1016.87 1016.99 1016.47 1015.95 1015.83 1015.83 1016.11 1016.51 1016.83 1016.87 1017.07 1017.35 1017.51 1017.79 1017.83 1017.63 1017.51 1017.71 1017.95 1018.31 1018.43 1018.47 1018.63 1018.71 1018.67 1018.71 1018.67 1018.79 1018.99 1019.15 1019.23 1018.91 1018.79 1018.91 1018.95 1019.11 1018.99 1018.95 1019.15 1018.99 1019.07 1019.07 1018.99 1018.87 1018.79 1018.95 1018.91 1018.91
1018.27 1019.11 1018.83 1018.51 1017.83 1017.03 1015.87 1015.51 1015.63 1015.59 1016.35 1016.35 1016.79 1017.07 1017.31 1017.11 1016.95 1016.75 1016.43 1016.23 1016.23 1016.59 1016.95 1017.11 1017.11 1016.95 1017.07 1018.03 1018.71 1018.35 1018.15 1018.03 1017.95 1018.07 1018.35 1018.43 1018.55 1018.51 1018.63 1018.55 1018.75 1018.75 1018.79 1018.99 1019.15 1019.15 1019.11 1019.07 1019.19 1019.39 1019.31 1019.19 1019.27 1019.35 1019.43 1019.47 1019.39 1019.43 1019.35 1019.43 1019.47 1019.35 1019.47
1019.07 1018.63 1018.91 1018.99 1018.71 1019.43 1017.43 1016.43 1015.67 1015.35 1015.43 1015.91 1016.11 1016.55 1017.71 1016.95 1016.83 1016.63 1016.59 1017.27 1017.23 1017.31 1017.39 1017.35 1017.31 1017.03 1017.87 1019.47 1019.87 1019.15 1018.71 1018.47 1018.55 1018.59 1018.63 1018.63 1018.71 1018.75 1018.79 1018.79 1018.87 1018.95 1019.07 1019.15 1019.19 1019.15 1019.31 1019.39 1019.47 1019.43 1019.39 1019.43 1019.55 1019.71 1019.83 1019.83 1019.83 1019.95 1020.03 1020.23 1020.15 1020.07 1020.03
1018.67 1018.31 1018.75 1019.19 1019.51 1018.11 1017.19 1016.43 1015.67 1015.43 1015.63 1015.87 1016.27 1016.71 1017.59 1016.95 1016.71 1016.71 1016.15 1017.03 1018.03 1018.27 1017.91 1017.79 1017.31 1017.95 1019.63 1020.55 1020.19 1019.51 1019.15 1019.03 1018.91 1019.07 1019.27 1019.19 1019.11 1019.11 1019.07 1019.11 1019.27 1019.27 1019.27 1019.27 1019.39 1019.43 1019.55 1019.87 1019.91 1019.71 1019.59 1019.55 1019.71 1020.07 1020.19 1020.27 1020.31 1020.51 1020.67 1020.63 1020.51 1020.43 1020.27
1019.27 1019.11 1018.95 1018.67 1018.47 1018.03 1016.79 1016.35 1015.79 1015.43 1015.79 1015.31 1015.67 1018.95 1017.95 1016.47 1016.39 1016.35 1016.31 1016.59 1016.83 1017.55 1017.75 1017.79 1018.03 1018.35 1019.95 1020.47 1020.07 1019.55 1019.47 1019.35 1019.47 1019.47 1019.59 1019.55 1019.51 1019.55 1019.47 1019.43 1019.47 1019.51 1019.43 1019.35 1019.63 1019.95 1020.19 1020.39 1020.27 1020.11 1019.91 1019.83 1020.03 1020.31 1020.55 1020.51 1020.63 1020.87 1020.99 1020.91 1020.75 1020.51 1020.27
1019.31 1018.71 1019.03 1019.27 1018.03 1017.03 1016.71 1016.23 1015.87 1015.55 1015.75 1015.39 1017.91 1019.95 1016.19 1015.91 1016.07 1016.19 1016.15 1016.35 1016.47 1016.79 1017.27 1017.43 1018.11 1018.43 1017.87 1018.63 1019.15 1019.27 1019.47 1019.51 1019.63 1019.67 1019.79 1019.91 1019.79 1019.79 1019.67 1019.71 1019.55 1019.67 1019.87 1019.99 1020.31 1020.43 1020.47 1020.39 1020.27 1020.19 1020.11 1020.19 1020.43 1020.51 1020.59 1020.71 1021.03 1021.11 1021.03 1020.83 1020.67 1020.55 1020.43
1018.79 1019.43 1018.79 1018.99 1018.83 1017.35 1017.07 1016.39 1016.35 1016.11 1015.95 1018.39 1018.39 1015.23 1015.39 1015.47 1015.95 1016.07 1016.03 1016.47 1016.59 1016.79 1016.75 1016.83 1017.51 1017.95 1018.07 1018.43 1018.63 1018.79 1019.19 1019.59 1019.79 1019.67 1019.79 1019.91 1020.07 1020.03 1019.95 1019.87 1019.83 1019.99 1020.11 1020.31 1020.47 1020.59 1020.67 1020.59 1020.51 1020.47 1020.43 1020.71 1020.91 1020.87 1020.79 1021.03 1021.23 1021.15 1020.99 1020.83 1020.71 1020.59 1020.55
1020.95 1020.15 1019.07 1019.19 1019.55 1017.59 1017.55 1016.91 1015.63 1015.63 1016.55 1015.99 1016.03 1016.15 1015.91 1015.31 1015.31 1015.63 1016.19 1016.39 1016.55 1016.51 1016.95 1017.19 1017.51 1017.83 1018.35 1018.63 1018.59 1018.67 1019.19 1019.63 1020.07 1019.91 1019.83 1019.99 1020.23 1020.39 1020.39 1020.43 1020.35 1020.27 1020.55 1020.75 1020.87 1020.99 1020.99 1020.91 1020.83 1020.75 1020.75 1021.07 1021.23 1021.19 1021.27 1021.35 1021.19 1021.03 1020.91 1020.83 1020.79 1020.71 1020.67
1019.11 1019.91 1019.75 1019.55 1018.31 1017.83 1017.59 1017.47 1016.71 1016.75 1016.75 1016.55 1016.27 1016.15 1016.11 1015.79 1015.79 1015.99 1016.19 1016.51 1016.39 1016.51 1016.71 1017.23 1017.79 1017.99 1018.11 1018.91 1018.87 1018.91 1019.15 1019.51 1019.91 1020.15 1020.23 1020.23 1020.43 1020.67 1020.59 1020.47 1020.51 1020.43 1020.79 1021.03 1021.15 1021.23 1021.19 1021.19 1021.11 1021.07 1020.99 1021.23 1021.35 1021.43 1021.59 1021.47 1021.19 1020.95 1020.79 1020.79 1020.75 1020.75 1020.75
1018.67 1018.55 1018.31 1017.91 1018.03 1018.19 1017.99 1017.91 1017.23 1017.11 1016.71 1016.71 1016.67 1015.99 1015.75 1016.07 1016.11 1016.07 1016.35 1016.35 1016.59 1016.75 1017.11 1017.39 1017.63 1018.11 1018.03 1018.27 1018.55 1018.83 1018.95 1019.35 1019.83 1020.07 1020.27 1020.19 1020.43 1020.71 1020.75 1020.67 1020.47 1020.39 1020.59 1020.99 1021.31 1021.47 1021.51 1021.47 1021.47 1021.47 1021.39 1021.39 1021.51 1021.67 1021.71 1021.55 1021.43 1021.23 1021.07 1020.95 1020.87 1020.87 1020.91
1018.39 1018.55 1018.59 1018.71 1018.19 1018.31 1017.91 1017.63 1017.75 1017.15 1016.67 1016.39 1016.51 1016.31 1015.59 1015.79 1016.07 1016.19 1016.35 1016.59 1016.71 1017.03 1017.23 1017.63 1018.07 1017.79 1017.95 1018.31 1018.75 1019.03 1019.15 1019.39 1019.79 1020.03 1020.31 1020.51 1020.59 1020.71 1020.79 1020.75 1020.59 1020.71 1020.91 1021.15 1021.27 1021.55 1021.79 1021.83 1021.79 1021.79 1021.83 1021.79 1021.83 1022.03 1021.83 1021.67 1021.55 1021.47 1021.35 1021.35 1021.31 1021.27 1021.15
1018.43 1018.39 1018.31 1018.23 1018.43 1018.55 1018.35 1017.59 1017.23 1017.23 1017.19 1017.19 1017.07 1016.59 1016.63 1016.31 1016.15 1016.27 1016.59 1016.91 1017.23 1017.43 1017.63 1017.75 1017.91 1018.15 1018.19 1018.51 1018.91 1019.23 1019.51 1019.71 1019.87 1019.99 1020.15 1020.47 1020.55 1020.67 1020.79 1020.99 1020.99 1021.07 1021.19 1021.43 1021.63 1021.75 1021.99 1022.19 1022.15 1022.11 1022.11 1022.19 1022.27 1022.15 1021.99 1021.83 1021.67 1021.55 1021.55 1021.67 1021.71 1021.67 1021.59
1018.39 1018.31 1018.47 1018.59 1018.63 1018.71 1018.67 1018.43 1017.59 1017.43 1017.39 1016.99 1016.99 1017.11 1017.03 1016.79 1016.63 1016.35 1016.43 1016.55 1017.43 1017.63 1018.15 1018.59 1019.07 1019.55 1019.79 1019.71 1019.55 1019.63 1019.71 1019.83 1019.87 1020.03 1020.23 1020.47 1020.83 1020.99 1021.03 1021.15 1021.15 1021.27 1021.39 1021.55 1021.79 1021.99 1022.19 1022.43 1022.43 1022.39 1022.39 1022.39 1022.31 1022.19 1022.07 1021.95 1021.83 1021.71 1021.75 1021.83 1021.99 1021.99 1021.95
1018.15 1018.31 1018.35 1018.35 1018.43 1018.19 1018.03 1018.07 1018.11 1018.27 1018.07 1017.39 1017.07 1016.99 1016.95 1016.99 1017.03 1017.07 1017.07 1016.87 1017.03 1017.31 1017.83 1017.91 1018.43 1019.03 1019.55 1020.19 1020.55 1020.47 1020.27 1020.19 1020.23 1020.39 1020.59 1020.75 1020.79 1021.03 1021.15 1021.15 1021.03 1021.11 1021.39 1021.63 1021.91 1022.11 1022.43 1022.67 1022.71 1022.67 1022.71 1022.67 1022.55 1022.39 1022.27 1022.11 1021.95 1021.87 1022.07 1022.19 1022.23 1022.19 1022.15
1018.95 1018.23 1018.27 1018.23 1018.51 1018.31 1018.31 1018.27 1018.23 1017.99 1018.03 1017.55 1017.19 1017.11 1017.07 1017.23 1017.35 1017.51 1017.51 1017.51 1017.35 1016.99 1017.23 1017.51 1017.67 1017.95 1018.83 1019.31 1019.23 1019.95 1020.91 1020.91 1020.47 1020.35 1020.51 1020.63 1020.75 1020.83 1020.91 1021.03 1021.15 1021.31 1021.39 1021.63 1021.95 1022.23 1022.59 1022.75 1022.79 1022.87 1022.91 1022.91 1022.83 1022.67 1022.51 1022.39 1022.23 1022.19 1022.27 1022.31 1022.35 1022.39 1022.23
1018.79 1018.27 1018.27 1018.47 1018.27 1018.19 1018.31 1018.23 1018.23 1018.15 1018.03 1017.51 1017.51 1017.75 1017.83 1017.67 1017.67 1017.75 1017.95 1018.07 1017.83 1017.75 1017.83 1017.87 1017.79 1018.07 1018.39 1018.95 1019.47 1019.91 1020.43 1020.47 1020.23 1020.07 1020.27 1020.51 1020.75 1020.87 1021.07 1021.19 1021.31 1021.35 1021.67 1021.83 1021.99 1022.23 1022.59 1022.71 1022.79 1022.87 1022.95 1022.99 1022.95 1022.87 1022.75 1022.67 1022.59 1022.55 1022.51 1022.55 1022.63 1022.63 1022.43
1018.11 1018.15 1018.23 1018.35 1018.15 1017.99 1018.07 1018.19 1018.35 1018.27 1018.35 1017.79 1017.59 1017.91 1017.95 1017.87 1017.87 1017.71 1017.83 1018.07 1018.23 1018.35 1018.23 1018.19 1018.23 1018.27 1018.43 1018.79 1019.15 1019.55 1019.95 1020.27 1020.35 1020.47 1020.51 1020.47 1020.51 1020.83 1021.07 1020.91 1021.11 1021.43 1021.71 1021.83 1021.91 1022.23 1022.63 1022.71 1022.79 1022.83 1022.91 1023.03 1023.03 1023.03 1022.95 1022.91 1022.87 1022.83 1022.83 1022.79 1022.79 1022.75 1022.63
1017.99 1017.99 1018.03 1018.23 1018.15 1018.03 1018.19 1018.35 1018.43 1018.39 1018.27 1018.19 1018.11 1017.91 1017.75 1017.71 1017.83 1017.83 1017.91 1018.19 1018.23 1018.19 1018.55 1018.63 1018.55 1018.71 1018.83 1019.03 1019.11 1019.23 1019.51 1019.95 1020.15 1020.19 1020.27 1020.43 1020.75 1020.75 1020.87 1020.95 1021.07 1021.23 1021.43 1021.67 1021.99 1022.35 1022.63 1022.71 1022.79 1022.83 1022.91 1023.11 1023.15 1023.15 1023.11 1023.07 1023.03 1023.03 1023.07 1022.99 1022.91 1022.79 1022.67
Wind_Speed
4 4 1 1 6 4 4 7 5 8 6 6 2 2 1 3 4 2 0 5 2 5 2 7 9 9 8 2 5 7 8 10 11 11 11 13 13 9 8 8 7 7 6 7 9 10 9 9 10 11 11 11 13 11 10 10 9 8 10 10 9 8 7
2 1 1 3 2 4 5 2 7 1 3 4 4 3 1 1 4 3 2 3 5 2 3 5 7 9 8 5 2 5 5 7 10 10 10 11 13 12 7 5 5 5 6 7 7 8 10 11 12 12 12 11 10 11 12 12 10 10 10 10 10 9 9
7 4 3 2 0 0 6 5 6 7 2 2 2 3 2 2 1 1 1 2 2 3 3 4 6 6 6 6 4 5 7 6 6 4 4 5 5 7 7 8 7 5 4 4 3 6 9 10 10 11 11 10 8 8 9 11 12 13 12 9 8 7 8
4 4 3 4 3 2 0 2 4 1 4 4 4 5 3 6 3 2 2 1 3 3 2 2 1 4 4 6 8 8 8 8 6 6 6 6 8 8 6 5 4 4 6 4 5 7 7 7 7 6 7 8 10 9 8 9 7 5 5 7 7 8 7
1 1 3 2 3 3 1 3 1 1 2 2 4 2 1 4 7 4 3 1 5 2 3 3 2 3 4 5 7 7 9 10 10 9 8 8 9 7 5 6 8 7 2 1 3 4 3 4 6 8 9 10 9 8 9 9 9 9 9 9 8 8 7
3 4 4 2 2 2 1 4 1 3 3 3 4 3 1 2 5 4 4 5 4 2 2 1 4 5 6 7 10 9 9 9 9 8 9 9 9 8 8 9 10 10 9 6 4 3 1 4 6 7 7 7 7 9 10 10 9 9 9 8 8 8 7
3 2 3 2 3 3 2 4 1 3 1 5 4 3 3 2 1 3 2 2 2 2 1 1 4 6 7 7 9 9 7 8 8 8 9 9 9 9 8 9 9 8 8 6 8 8 7 4 2 3 6 9 11 10 9 9 9 10 9 9 8 7 7
5 5 3 2 2 2 1 3 1 3 2 0 4 2 4 6 2 2 2 1 3 2 3 3 6 5 5 5 7 10 8 8 8 8 7 9 9 7 8 9 8 7 6 5 3 3 1 1 1 4 5 5 2 4 6 4 6 6 7 6 6 6 6
3 4 8 7 2 4 3 3 4 1 1 1 1 5 1 4 6 6 8 6 3 3 4 4 7 8 8 8 7 8 10 8 9 8 7 6 6 7 7 8 8 7 6 4 5 7 7 6 4 6 6 5 4 2 1 3 3 3 3 3 4 5 6
2 1 3 4 6 7 6 1 4 4 4 1 5 2 1 2 1 3 2 2 2 6 6 8 7 7 7 6 8 8 7 8 9 8 8 7 7 6 6 7 9 10 10 9 8 3 5 6 7 8 7 6 6 5 6 4 3 4 5 6 3 2 3
4 2 2 4 2 3 4 10 5 9 4 1 3 5 4 6 3 5 4 6 9 12 12 10 8 8 9 9 7 8 9 8 8 7 6 7 6 5 3 4 6 7 5 5 3 3 3 5 4 4 5 4 2 3 7 8 6 4 5 4 4 4 4
2 3 2 5 2 1 2 8 11 9 9 4 2 4 2 4 9 4 1 6 14 14 14 12 11 9 9 9 10 9 7 7 7 7 7 6 6 5 5 7 7 7 6 6 7 6 4 4 5 4 2 2 2 4 5 4 4 4 3 5 6 5 5
3 5 2 1 4 2 1 4 7 12 11 4 2 2 1 6 7 9 7 11 10 11 14 12 10 10 10 11 9 9 8 8 9 8 8 7 7 6 8 8 7 8 8 8 10 9 8 7 6 5 4 3 2 2 1 3 4 6 5 6 6 5 6
1 4 8 1 8 8 5 5 9 8 10 6 3 3 3 1 1 2 10 11 5 8 11 12 10 7 8 9 8 8 9 9 9 9 9 8 8 9 8 9 9 9 10 10 10 10 9 9 8 7 6 5 5 5 4 3 3 5 4 2 3 3 5
2 6 7 7 6 6 5 5 12 12 11 4 4 4 4 6 8 7 11 12 9 3 10 10 9 8 8 8 10 10 8 9 10 10 10 10 9 8 9 9 9 9 10 10 10 11 10 9 8 8 8 8 8 7 7 7 7 4 7 7 6 5 5
2 3 6 6 7 9 4 11 15 16 12 8 6 3 3 3 7 8 9 7 6 7 11 11 11 10 10 11 10 9 8 9 10 11 11 9 9 9 9 9 9 10 10 10 10 10 10 9 9 9 8 9 9 8 7 8 6 6 4 3 3 3 7
2 3 3 2 2 6 10 9 8 11 6 1 2 5 9 5 5 13 11 8 5 11 12 15 11 11 9 8 8 9 8 9 11 11 10 9 9 9 9 9 10 10 9 9 10 9 9 8 9 9 9 9 10 8 8 7 7 8 8 7 8 8 8
2 5 6 2 4 8 6 2 1 6 6 5 8 5 7 8 5 2 2 4 7 9 10 14 11 11 9 7 4 3 6 10 10 10 10 10 10 9 9 10 10 10 8 8 8 9 9 9 10 9 10 10 9 9 9 9 10 9 9 10 10 10 9
1 2 2 4 3 8 6 1 2 6 7 10 10 7 10 10 10 3 10 11 11 9 8 10 10 9 9 9 9 8 6 6 8 11 11 10 9 11 11 11 10 10 10 10 9 10 9 8 9 9 9 9 10 11 10 10 10 11 10 10 10 8 9
2 2 1 3 7 5 3 2 1 1 2 1 1 4 7 10 8 4 9 9 11 11 11 9 9 12 11 11 9 7 7 6 7 9 9 9 8 11 10 11 10 11 10 10 9 8 6 7 8 8 8 8 10 9 9 10 10 10 10 12 11 10 10
3 3 3 4 4 3 1 1 2 2 1 3 1 1 4 4 5 5 6 10 10 11 11 11 11 12 12 11 8 8 7 8 8 10 9 9 9 10 9 10 10 9 9 9 9 8 9 9 8 7 7 9 10 11 11 10 11 11 11 11 10 10 10
3 4 2 2 1 3 4 2 3 0 2 1 2 3 3 2 4 2 9 8 7 11 10 11 11 11 13 9 5 5 6 8 11 9 9 9 9 9 9 9 9 9 9 9 8 9 10 9 8 7 8 9 10 11 11 10 11 10 10 8 8 8 7
2 3 4 2 4 3 3 1 2 3 1 4 3 2 2 2 2 3 13 14 6 3 8 10 9 9 9 5 3 2 5 7 8 10 8 8 7 7 7 8 9 8 9 9 9 9 10 10 7 6 8 10 10 10 9 9 9 9 8 7 7 7 6
2 3 2 0 3 2 1 3 3 3 1 3 2 3 7 6 7 6 9 14 16 14 11 7 3 8 11 7 5 3 6 7 7 7 8 9 9 8 8 8 8 8 8 12 12 10 10 8 5 6 7 9 10 9 7 8 9 8 6 5 4 5 6
1 2 1 2 3 2 3 4 7 6 2 2 3 4 2 5 8 7 7 11 12 13 11 7 10 2 7 13 11 9 7 9 8 7 6 6 6 8 8 8 9 10 10 10 9 9 7 6 7 6 8 9 9 8 7 9 8 6 4 5 6 6 6
1 0 0 2 3 4 3 7 7 4 1 1 3 4 1 10 9 7 7 9 8 8 9 7 6 10 12 13 13 13 12 12 8 7 7 8 7 7 7 9 8 9 9 10 9 9 8 7 7 6 8 10 7 7 9 9 6 3 4 6 6 7 8
1 3 2 2 1 1 3 10 3 1 0 4 2 2 1 5 10 12 8 8 9 7 7 6 12 14 13 12 14 14 12 12 11 8 8 9 9 8 8 7 6 9 9 9 8 7 5 6 6 6 9 9 7 7 9 7 5 5 5 6 6 6 6
1 1 0 1 2 5 4 3 0 3 1 4 2 0 0 0 3 7 9 5 6 4 11 13 11 12 15 11 11 13 12 12 10 8 6 6 5 4 4 7 8 10 10 8 8 7 6 6 6 6 8 8 7 8 7 5 5 6 6 7 6 7 6
1 1 1 2 3 5 4 1 2 3 5 3 3 2 2 4 3 1 4 7 4 6 8 10 12 12 13 15 13 12 12 12 11 9 7 8 8 6 6 6 6 8 10 10 8 8 6 7 6 6 6 7 7 8 5 4 6 6 6 7 7 7 7
2 1 4 4 2 3 7 3 1 3 5 5 4 2 2 3 2 3 4 3 5 6 6 10 6 10 12 13 11 8 9 11 9 9 8 5 5 6 6 6 7 8 8 8 9 9 7 6 6 5 6 6 7 3 3 4 4 5 6 6 6 7 7
2 1 3 5 3 3 4 5 4 1 4 4 3 4 4 1 2 6 5 6 5 5 4 4 8 8 10 11 9 9 8 9 10 10 10 8 8 8 8 6 6 7 8 8 7 7 7 4 5 5 7 6 4 3 4 4 4 5 6 6 6 6 6
0 1 1 2 2 1 2 3 6 6 8 8 6 3 3 2 2 4 9 11 10 9 10 10 10 10 8 2 6 7 7 8 9 9 9 9 7 5 6 6 6 7 8 9 7 6 5 3 4 6 6 6 5 5 4 4 4 5 6 5 5 5 5
3 2 2 2 3 3 6 6 4 3 3 4 6 7 7 7 6 5 4 5 11 11 12 12 13 11 8 4 3 1 1 6 7 7 8 8 9 9 8 6 7 9 8 8 7 6 5 4 5 6 6 5 5 6 5 5 5 6 6 7 6 7 6
1 2 1 1 1 1 3 4 4 5 4 4 7 7 9 8 7 6 4 4 2 9 12 12 14 16 15 14 13 10 5 6 7 7 8 7 7 6 5 6 7 8 8 8 7 6 5 5 6 6 6 5 5 4 5 5 6 6 6 5 6 7 6
1 2 3 2 2 3 2 1 3 3 2 6 9 7 5 5 4 6 5 3 3 4 3 3 9 12 13 12 9 9 9 10 9 9 10 9 7 7 7 8 7 8 7 6 7 6 6 6 6 6 6 5 5 5 5 5 6 6 5 5 4 6 6
1 2 3 4 1 1 1 2 2 2 3 4 4 2 3 5 5 4 5 3 1 1 2 3 3 7 11 12 13 14 10 8 8 8 7 7 8 9 8 9 9 8 7 7 7 7 6 6 6 6 6 5 5 4 4 5 5 6 5 4 4 3 3
0 1 2 4 2 0 1 0 0 1 3 2 2 3 4 3 3 5 6 4 2 1 1 4 3 2 6 8 10 12 12 10 10 10 9 7 8 9 8 9 9 9 8 7 6 6 7 7 6 6 7 5 4 4 4 4 5 6 5 5 5 5 4
Wind_Direction
179 208 144 241 151 198 215 120 181 209 172 139 71 69 13 81 55 226 179 334 316 305 324 8 353 19 14 88 142 159 168 167 167 180 179 174 181 183 163 172 177 172 172 178 179 180 181 182 183 188 187 186 189 185 185 192 193 188 190 191 189 185 178
294 199 203 238 244 147 100 140 229 117 98 111 130 195 343 70 168 241 62 226 297 30 221 341 3 18 11 16 109 143 148 154 170 181 181 177 180 185 157 132 131 139 160 176 179 180 184 186 188 189 191 191 189 186 187 187 186 190 197 195 191 186 183
270 336 102 28 61 69 150 198 177 138 214 228 319 113 183 151 285 246 322 216 250 174 258 352 4 8 9 21 58 99 118 145 152 144 163 171 145 94 119 147 145 129 108 92 130 184 193 195 192 192 189 182 181 188 189 189 191 195 192 191 194 194 190
317 356 70 201 297 326 20 96 114 294 116 154 146 203 170 117 192 96 285 59 241 211 198 250 27 42 355 73 76 83 89 89 96 100 93 113 117 134 133 137 118 90 89 123 164 182 192 194 187 186 181 177 182 184 182 193 201 191 182 191 189 195 200
32 9 3 187 165 143 13 32 306 239 17 215 114 37 92 158 163 180 153 255 268 243 216 224 117 84 59 72 77 70 83 90 92 93 102 106 117 131 140 90 81 79 89 353 43 46 90 143 172 177 185 186 181 172 182 184 186 187 189 192 189 196 187
16 243 254 213 196 173 171 150 144 176 123 133 152 246 12 85 114 180 138 232 271 291 243 73 127 76 70 69 81 74 75 78 80 87 92 106 115 119 120 126 137 151 178 179 78 51 91 188 182 179 176 168 177 185 186 183 185 190 189 189 195 193 192
259 246 274 265 266 176 185 124 49 174 111 106 94 158 243 53 23 80 128 114 284 253 101 81 107 103 100 96 101 92 86 83 81 82 88 85 107 127 134 137 145 160 161 137 138 157 204 204 145 157 168 179 186 197 193 187 186 192 188 190 191 187 191
294 299 304 338 51 91 23 359 56 58 355 213 166 169 178 134 176 73 359 111 242 258 143 111 116 112 99 83 95 106 93 93 83 75 86 117 120 122 140 144 151 156 128 115 145 220 94 48 44 16 12 5 310 228 206 185 206 196 183 179 173 175 186
342 341 351 355 336 72 76 318 315 305 294 142 154 105 57 107 217 167 137 215 240 162 128 118 128 122 109 99 86 98 105 95 90 93 99 110 119 120 127 145 141 122 113 163 206 197 186 185 126 83 40 31 352 332 10 217 205 110 122 144 163 180 186
179 25 1 342 321 316 298 207 329 350 343 146 118 155 79 129 242 120 136 204 269 130 149 150 153 130 107 93 99 89 83 93 98 96 98 107 123 139 168 141 130 142 156 175 190 229 5 41 78 110 142 175 216 210 210 200 151 128 114 76 41 299 225
149 195 209 255 237 325 19 321 1 332 331 349 106 104 108 190 191 182 226 166 153 161 174 170 161 145 133 121 108 103 102 95 90 92 103 118 125 138 123 98 118 113 128 136 108 71 106 117 158 185 185 191 203 23 12 23 33 80 101 121 165 169 215
168 196 221 297 318 295 289 5 343 343 351 318 135 138 208 172 109 236 244 178 155 178 175 171 155 144 136 128 122 116 107 106 106 103 102 100 101 85 65 68 91 122 118 90 77 75 123 155 177 186 145 105 86 128 156 150 139 126 153 158 151 152 135
260 241 221 291 14 46 328 5 353 357 336 349 224 232 203 149 156 202 192 169 174 168 171 158 142 143 140 137 129 125 123 117 114 109 102 99 89 74 68 71 66 80 84 80 75 76 83 89 91 76 64 68 112 131 147 130 112 124 144 182 186 146 134
238 329 320 35 38 4 21 15 351 350 354 340 52 50 21 71 220 221 151 155 129 151 150 136 141 137 130 123 118 118 117 118 116 110 101 94 88 79 69 65 66 70 75 73 70 66 59 66 67 66 59 64 72 63 52 75 125 151 148 220 199 164 149
7 353 353 2 16 28 359 339 356 353 350 352 54 87 65 56 47 96 132 133 134 80 122 121 122 122 122 118 119 116 118 119 115 107 101 99 92 79 75 71 62 66 68 67 68 64 60 57 57 58 58 55 63 60 57 74 90 118 165 198 202 180 168
330 345 2 353 345 332 32 12 359 346 351 358 346 23 327 136 136 123 118 139 149 154 130 124 129 131 128 127 126 122 122 116 110 104 100 92 90 80 71 70 72 68 66 68 66 64 61 59 57 57 61 65 63 58 51 55 67 87 103 127 155 179 171
275 305 310 106 106 292 315 3 345 329 312 248 40 8 12 30 151 142 168 198 140 145 140 131 138 130 129 127 131 129 120 115 110 104 99 95 90 85 80 76 76 62 61 65 67 65 60 54 56 52 57 59 58 53 46 36 55 65 66 67 71 61 51
244 313 322 21 73 206 230 231 118 47 3 2 62 17 351 353 9 204 118 82 112 129 133 130 135 136 137 129 88 68 118 119 108 97 96 100 100 92 85 85 81 77 67 62 59 64 63 60 57 57 56 61 58 54 49 39 43 46 54 55 48 44 46
200 331 7 60 188 228 227 232 145 125 118 90 86 53 27 3 359 73 104 112 129 126 119 125 124 110 98 88 88 77 61 90 105 111 107 103 101 98 95 89 83 84 81 73 66 62 55 53 56 58 55 55 58 53 50 51 45 47 43 48 50 48 46
60 54 46 128 237 237 291 269 142 97 131 154 61 38 26 6 351 330 116 120 122 120 118 109 111 108 101 80 56 58 69 80 105 105 106 108 105 100 100 98 92 87 80 79 76 71 63 63 56 55 57 58 62 58 53 54 53 51 49 49 43 39 39
164 188 154 202 290 321 318 29 61 64 9 316 51 337 313 343 349 343 107 116 116 114 114 116 116 114 98 79 49 28 65 76 77 97 103 103 102 107 101 94 88 84 85 84 83 76 66 59 59 51 55 60 61 58 53 51 53 50 48 44 38 39 38
115 131 69 15 70 195 267 281 302 340 134 223 176 102 324 323 14 19 80 59 86 114 117 124 127 117 99 85 46 20 59 79 87 73 83 89 94 92 93 89 87 86 88 86 73 76 73 61 54 60 62 66 64 60 54 50 51 48 47 42 41 41 38
38 35 118 196 161 243 216 304 315 336 56 118 123 56 314 254 177 196 124 122 89 24 129 140 138 116 106 107 95 38 58 71 80 93 78 84 77 70 71 86 89 83 80 79 77 69 64 62 47 58 64 65 65 61 57 55 54 52 44 38 34 38 33
100 134 85 275 198 94 0 273 294 300 42 151 73 23 290 200 180 188 156 147 147 155 155 152 122 137 127 145 152 87 71 75 59 80 103 103 95 86 81 64 67 71 65 65 55 55 57 58 64 67 66 66 67 67 62 61 55 50 41 35 37 40 36
352 74 276 322 315 294 293 285 301 317 295 93 101 177 249 179 170 184 174 160 154 153 149 160 139 237 150 149 139 115 105 88 73 67 55 58 77 91 86 84 82 75 68 71 69 59 46 45 51 58 67 64 54 51 55 57 51 39 20 34 44 45 43
12 179 112 218 241 248 278 290 288 275 73 97 201 232 217 160 169 178 171 159 153 150 148 143 133 137 132 131 134 133 134 126 119 112 109 99 86 76 85 91 87 84 77 72 67 52 35 30 30 50 67 67 56 45 44 39 26 9 40 45 45 45 45
82 43 58 17 112 229 59 322 350 35 77 235 227 281 293 196 165 160 166 166 162 151 130 137 137 130 130 141 144 138 138 132 136 143 132 126 124 123 118 104 95 99 87 75 67 61 44 41 36 45 68 68 58 48 43 9 343 12 42 48 48 51 50
140 67 123 197 214 271 316 18 156 296 252 304 264 106 85 55 144 161 154 172 172 148 142 142 138 139 136 146 150 144 143 139 141 137 128 117 107 105 105 118 124 110 101 94 84 64 54 50 49 53 74 76 65 58 32 343 353 10 27 37 44 44 40
126 206 211 250 249 251 282 253 242 258 295 312 252 182 158 157 191 141 157 169 162 130 150 147 149 150 156 156 162 156 150 142 142 143 149 137 135 132 122 115 107 97 99 100 94 75 57 56 51 50 53 75 70 55 4 358 12 17 26 31 38 32 30
273 238 216 284 318 336 330 312 282 306 334 346 16 349 161 225 180 161 166 155 138 130 146 141 162 157 153 153 161 150 143 140 139 137 132 124 123 123 115 99 87 99 99 94 92 86 61 48 56 54 50 57 66 42 344 12 18 25 38 40 39 27 22
62 212 315 13 335 314 347 338 328 352 19 357 347 11 339 312 147 110 91 105 86 89 81 119 141 148 153 153 152 146 142 138 141 143 140 146 146 141 135 140 130 117 113 107 102 93 89 51 68 61 62 53 60 42 40 13 26 48 58 53 44 35 22
117 251 296 304 264 279 316 17 20 355 340 348 12 3 355 359 55 118 134 120 102 102 87 78 65 46 22 69 136 144 142 143 144 147 150 149 148 158 153 149 130 119 116 117 113 107 108 102 78 75 65 58 39 45 35 24 29 64 60 55 48 32 27
280 311 294 281 287 326 13 6 25 359 319 341 12 21 32 31 51 70 66 94 130 116 124 129 120 104 82 41 355 359 116 144 147 152 154 158 156 153 147 147 131 127 126 117 120 119 123 123 99 84 73 54 42 47 35 23 45 60 57 49 44 31 22
318 229 218 113 110 279 325 350 349 349 355 45 38 24 31 27 33 19 81 92 126 150 161 158 149 148 155 176 165 166 198 200 176 156 153 153 144 136 127 120 123 122 120 125 128 124 126 122 108 100 88 70 55 49 38 30 44 60 58 52 45 36 33
240 257 239 228 176 159 209 201 318 336 353 71 55 44 34 36 52 64 55 46 87 151 189 178 158 156 166 170 159 164 181 195 183 166 156 151 147 141 140 126 128 126 136 133 125 121 128 119 107 104 95 84 75 56 57 52 58 56 51 57 47 43 43
249 232 221 194 101 283 261 257 252 302 341 50 81 81 87 72 59 72 83 79 54 302 236 215 206 175 171 168 167 177 184 180 163 168 170 158 151 150 151 144 141 139 141 137 135 138 132 117 109 103 95 74 66 66 69 69 66 65 54 58 44 19 27
148 215 183 181 196 300 262 287 241 289 330 12 41 10 18 50 78 89 76 48 92 120 300 287 276 181 177 178 177 174 174 177 175 165 164 154 156 153 151 144 148 148 151 148 143 135 127 123 115 105 93 69 58 62 60 65 70 73 58 47 35 10 25